Wind_Speed
14 15 15 14 13 12 11 10 10 11 12 13 12 11 12 11 10 11 12 9 6 7 6 5 5 4 5 6 6 6 6 7 7 11 11 10 12 13 16 14 15 7 11
15 16 15 13 13 12 11 10 10 10 11 11 12 11 10 9 10 9 7 5 5 4 5 4 4 5 5 5 6 6 6 9 11 11 11 10 10 15 14 12 12 7 9
15 15 14 13 11 11 10 10 10 10 9 10 11 10 9 8 7 9 7 6 2 4 4 5 6 4 5 4 5 6 8 11 13 17 16 8 6 11 10 9 8 9 9
13 14 13 13 11 10 9 9 9 9 8 9 10 10 9 8 7 7 6 10 4 4 3 4 5 4 4 4 7 7 11 13 17 16 9 6 5 8 9 8 8 6 7
13 14 9 11 11 10 10 9 8 8 8 9 9 10 9 7 7 6 5 6 7 4 5 3 4 5 4 6 8 8 8 11 12 9 7 9 3 4 7 7 6 6 10
16 13 9 10 10 9 9 10 10 9 8 8 7 7 7 8 7 6 5 5 5 4 5 3 2 4 4 6 7 7 8 11 10 10 6 8 7 2 4 6 6 5 5
12 9 10 10 10 9 8 8 9 9 9 8 7 7 7 7 7 6 6 6 5 4 5 5 5 3 6 5 7 6 8 13 12 5 5 4 5 8 6 7 6 5 5
13 11 13 12 10 8 8 8 8 9 8 7 6 6 7 7 7 6 6 7 6 6 4 4 5 5 6 7 7 7 10 12 9 5 5 6 5 6 7 6 6 5 5
13 14 9 10 10 9 8 8 8 8 8 7 6 6 6 6 6 6 6 6 7 6 5 4 4 7 8 7 7 9 10 9 10 7 6 5 3 4 7 7 6 5 5
13 9 10 12 9 8 7 8 8 7 8 7 5 6 6 7 6 6 6 5 7 7 6 5 5 6 9 9 7 9 10 10 10 4 2 9 10 5 6 7 6 5 5
13 11 13 11 10 9 7 7 8 8 6 8 7 6 7 4 7 6 5 8 7 7 7 7 6 6 9 10 10 10 9 6 9 9 11 11 7 5 5 8 8 6 5
13 12 11 8 9 8 7 8 6 7 6 5 6 10 6 7 7 4 6 9 8 8 8 8 7 6 7 8 8 12 10 9 8 8 11 9 11 10 7 6 8 8 7
13 13 13 12 11 6 9 7 9 8 10 9 12 11 12 14 8 7 8 6 6 7 6 8 7 5 7 10 12 7 9 12 10 9 14 10 11 9 9 7 7 8 8
15 12 11 10 12 11 7 9 9 10 9 10 11 15 13 10 10 11 11 10 9 11 7 13 15 6 7 10 10 15 13 13 13 10 12 14 17 13 11 10 10 9 9
14 11 9 10 12 12 15 15 17 15 17 18 17 13 13 12 13 13 12 11 11 12 10 9 8 11 9 13 10 11 10 13 13 13 14 15 17 17 15 12 12 13 11
12 12 9 12 11 11 13 16 17 17 20 17 15 13 16 16 15 15 14 15 16 12 10 13 14 12 11 12 13 13 15 14 14 16 13 16 16 15 17 16 13 13 12
12 9 1 8 6 10 12 13 14 16 14 17 16 18 18 18 20 17 22 23 21 11 13 14 15 13 16 14 15 15 16 15 14 15 17 17 15 15 15 18 17 15 14
16 19 13 12 14 10 9 11 17 15 15 17 18 17 22 20 19 20 18 18 16 8 12 15 14 12 15 18 20 19 18 18 18 18 18 17 18 15 16 14 16 16 15
15 13 5 11 15 14 4 9 13 12 14 17 15 15 18 20 18 19 19 16 18 16 18 16 11 14 16 17 18 17 16 19 19 19 19 18 20 18 13 14 15 14 17
7 8 11 15 11 13 6 6 12 17 18 10 13 13 10 16 15 13 15 16 15 13 15 13 17 16 12 12 13 17 19 19 19 19 18 17 20 21 17 15 16 14 11
21 12 15 2 7 2 8 7 8 9 3 1 8 9 12 9 8 9 11 11 10 12 12 11 9 12 16 16 14 16 19 21 21 21 17 13 15 18 18 18 19 16 16
13 12 4 4 3 6 11 5 1 5 4 6 7 4 2 5 7 7 8 5 9 11 9 11 16 16 19 16 16 13 11 16 22 19 18 16 14 15 18 18 18 20 15
13 9 12 9 6 7 6 6 8 9 8 3 1 3 2 1 2 4 4 6 10 9 10 15 15 15 12 12 13 12 6 7 14 12 17 18 14 17 17 19 22 16 14
12 11 8 8 7 6 10 4 7 3 2 6 1 3 2 2 3 5 7 7 9 10 16 13 15 14 14 15 17 16 16 12 5 6 11 14 14 19 18 15 17 11 8
9 9 9 10 9 9 9 6 2 4 2 3 3 5 7 9 3 3 5 7 9 10 9 9 9 10 10 12 13 12 13 12 13 8 8 10 8 8 10 13 9 5 5
8 9 11 12 11 12 11 6 2 2 3 1 3 3 3 4 7 2 6 7 6 4 4 5 5 5 6 6 5 7 9 10 10 14 8 11 8 5 4 3 7 5 6
Wind_Direction
135 143 143 139 136 133 135 144 146 148 144 144 149 142 142 131 125 101 96 87 97 97 99 116 119 102 99 111 101 111 112 113 108 109 102 108 101 106 102 99 78 117 110
135 137 138 141 140 137 141 147 151 153 151 148 150 149 147 137 125 122 119 91 119 114 120 103 120 107 100 106 111 105 106 114 112 101 98 110 103 120 123 117 130 110 107
129 135 136 143 144 146 151 146 150 151 157 161 163 159 157 146 140 134 125 79 167 130 129 130 122 116 116 122 113 113 117 126 104 91 89 86 107 118 131 118 123 125 109
131 125 138 140 148 151 158 152 156 155 157 162 165 165 167 161 157 152 151 157 135 86 109 146 139 145 134 133 132 120 123 112 109 108 98 109 120 123 132 134 125 101 99
131 146 139 137 146 155 163 164 166 165 161 158 166 170 176 177 177 168 181 193 206 172 78 147 151 137 145 137 143 136 123 116 118 95 88 122 127 142 119 112 98 108 113
137 155 159 143 144 154 163 167 169 170 174 168 171 180 184 186 176 186 195 211 218 213 210 214 141 150 140 144 149 152 137 116 90 92 148 142 157 188 157 154 158 140 129
153 195 176 156 149 155 162 168 171 172 176 176 183 183 183 188 187 187 192 208 222 210 209 210 189 170 167 173 163 165 143 122 102 147 140 161 243 231 166 152 152 156 152
151 147 171 163 160 162 166 171 175 178 184 184 191 189 186 189 187 202 206 209 214 216 218 208 194 203 190 188 180 169 155 134 118 151 162 185 258 202 179 165 162 164 180
160 169 161 163 170 176 175 179 181 183 188 192 194 192 189 198 207 215 211 219 216 219 229 228 195 204 205 191 193 183 169 152 150 193 155 257 256 216 196 187 176 182 192
166 173 179 181 182 174 190 184 187 198 189 197 207 196 200 218 221 216 228 218 220 221 222 219 214 197 201 200 197 199 198 183 159 208 213 223 256 247 203 196 186 195 206
170 171 198 200 188 171 187 225 197 204 203 199 204 214 208 207 255 256 240 237 229 225 228 226 218 200 196 201 202 202 211 205 227 216 194 228 253 239 218 208 211 215 221
177 182 185 188 195 188 191 231 205 229 212 212 220 250 190 233 191 197 227 263 239 236 228 227 218 208 201 218 225 214 209 217 247 251 246 242 259 241 240 224 218 219 224
185 188 187 188 196 195 200 217 204 228 210 216 197 236 207 235 176 229 236 238 253 245 232 276 237 203 207 199 213 227 221 227 242 256 254 246 260 241 240 242 234 236 235
187 190 188 192 189 206 207 220 230 214 230 180 224 222 213 214 211 231 237 251 255 260 230 210 223 226 232 225 232 210 218 228 226 244 264 262 267 248 236 239 241 242 243
182 185 197 201 220 196 209 212 222 216 224 234 233 228 225 210 216 233 238 237 264 276 260 233 237 203 226 222 225 236 248 227 232 229 253 264 273 256 247 245 250 244 245
174 176 200 226 229 220 225 221 228 232 229 236 243 234 240 225 224 225 237 244 266 257 273 256 233 227 235 233 232 232 231 232 241 232 237 268 271 271 251 244 247 248 250
170 160 218 238 241 276 249 240 238 241 248 245 244 245 242 238 234 242 248 249 254 248 245 252 240 232 226 236 243 243 236 235 239 257 243 237 275 272 273 255 248 250 245
173 144 11 223 245 282 289 252 239 244 253 242 257 249 244 235 234 256 254 254 266 265 247 260 250 256 241 230 233 233 245 245 248 242 243 248 244 267 274 274 262 251 249
69 319 8 254 246 266 300 263 258 247 254 245 247 254 231 231 241 254 245 248 250 244 245 255 253 244 257 254 253 257 243 240 245 248 250 250 248 238 254 255 259 261 256
266 188 331 331 226 246 279 320 284 272 239 237 245 237 213 222 240 241 238 236 240 242 248 251 249 249 256 273 259 254 256 250 245 247 245 253 252 237 235 249 262 260 259
305 237 317 48 164 232 15 3 328 336 11 310 202 230 233 222 231 233 238 240 235 238 254 253 272 273 249 254 253 252 258 255 243 244 242 246 232 238 233 238 234 245 254
268 209 164 145 186 76 61 16 96 102 104 144 125 142 184 221 225 223 233 247 264 256 266 270 256 256 254 256 255 253 259 248 245 231 232 232 230 230 237 246 253 237 236
225 195 160 178 147 111 151 160 123 107 106 80 13 152 178 156 304 282 273 254 261 282 272 280 269 273 259 266 248 236 261 248 230 217 224 230 234 225 241 244 246 243 236
205 173 167 169 164 160 134 174 151 124 223 268 248 242 253 249 263 282 283 272 272 247 248 254 265 258 258 255 251 240 238 259 254 219 215 219 225 220 242 241 245 269 267
172 169 170 162 171 178 149 157 191 205 248 236 277 312 338 330 305 261 291 280 265 261 263 266 276 274 272 269 257 247 230 235 244 253 209 185 213 218 239 244 257 254 250
159 164 170 172 189 168 153 154 178 190 150 251 294 329 354 289 296 327 313 306 284 252 271 284 291 299 301 284 246 235 237 223 224 231 228 193 159 151 180 235 267 265 261
Height
1534 1533 1536 1539 1541 1543 1545 1547 1548 1550 1551 1552 1554 1556 1557 1559 1559 1560 1560 1561 1562 1562 1563 1563 1564 1565 1565 1566 1566 1567 1567 1567 1568 1568 1568 1570 1570 1571 1572 1573 1574 1574 1573
1535 1535 1537 1540 1543 1545 1548 1549 1551 1552 1553 1554 1556 1557 1559 1562 1563 1562 1562 1562 1562 1563 1564 1565 1565 1566 1566 1567 1568 1568 1568 1569 1569 1570 1571 1572 1573 1573 1574 1574 1576 1576 1575
1538 1537 1540 1543 1545 1547 1549 1551 1553 1554 1555 1556 1557 1559 1560 1562 1564 1563 1563 1562 1562 1564 1565 1566 1566 1567 1568 1568 1569 1569 1570 1570 1572 1573 1573 1576 1576 1575 1576 1577 1577 1578 1577
1541 1543 1542 1544 1547 1549 1551 1552 1554 1555 1556 1558 1559 1560 1562 1564 1565 1565 1564 1563 1563 1566 1565 1566 1567 1568 1568 1569 1570 1571 1572 1573 1574 1574 1576 1579 1579 1577 1578 1578 1579 1580 1580
1544 1545 1545 1546 1548 1549 1552 1554 1555 1556 1557 1558 1560 1562 1563 1564 1565 1566 1566 1565 1565 1567 1567 1568 1567 1569 1570 1570 1571 1572 1573 1575 1576 1576 1579 1581 1582 1578 1579 1580 1580 1581 1581
1543 1544 1547 1548 1550 1551 1552 1554 1556 1557 1558 1559 1561 1562 1564 1564 1565 1566 1567 1567 1566 1567 1569 1569 1570 1570 1570 1571 1572 1573 1574 1576 1577 1579 1581 1582 1580 1580 1580 1580 1581 1582 1582
1542 1546 1547 1548 1550 1552 1554 1555 1556 1557 1559 1560 1561 1563 1565 1566 1566 1566 1567 1568 1567 1567 1567 1569 1570 1570 1571 1572 1572 1573 1575 1577 1577 1582 1582 1583 1581 1581 1581 1581 1582 1582 1583
1544 1545 1545 1547 1550 1552 1553 1555 1556 1557 1559 1560 1561 1563 1564 1565 1567 1567 1568 1568 1568 1568 1568 1568 1570 1570 1571 1572 1573 1574 1576 1577 1579 1583 1583 1583 1581 1581 1581 1581 1582 1583 1584
1545 1545 1548 1548 1550 1552 1553 1554 1556 1557 1559 1560 1562 1563 1564 1566 1568 1567 1567 1568 1568 1568 1568 1568 1569 1569 1571 1572 1574 1574 1576 1578 1579 1582 1583 1582 1581 1581 1581 1581 1582 1583 1584
1546 1546 1548 1550 1551 1554 1555 1555 1557 1558 1559 1560 1561 1563 1564 1565 1566 1568 1568 1569 1568 1568 1568 1568 1568 1569 1570 1572 1573 1575 1576 1577 1578 1580 1582 1580 1581 1581 1581 1581 1582 1583 1584
1548 1550 1549 1552 1552 1554 1556 1557 1557 1558 1560 1560 1561 1562 1563 1565 1566 1567 1568 1568 1568 1568 1568 1568 1568 1568 1569 1571 1572 1574 1575 1577 1578 1580 1579 1580 1580 1581 1581 1581 1582 1583 1583
1548 1549 1549 1553 1553 1555 1558 1558 1559 1560 1561 1562 1564 1563 1563 1567 1559 1558 1567 1567 1567 1566 1566 1566 1566 1567 1568 1571 1572 1573 1574 1577 1578 1576 1578 1579 1579 1580 1580 1580 1581 1582 1583
1545 1546 1547 1549 1552 1554 1556 1557 1559 1560 1561 1562 1562 1563 1563 1557 1562 1568 1568 1569 1567 1564 1570 1570 1568 1566 1570 1571 1572 1573 1575 1577 1576 1577 1576 1577 1578 1579 1579 1580 1580 1581 1582
1541 1546 1547 1550 1549 1551 1555 1557 1557 1559 1556 1557 1562 1561 1561 1562 1564 1567 1567 1567 1566 1564 1570 1551 1568 1568 1569 1569 1571 1573 1574 1575 1576 1576 1575 1576 1577 1577 1577 1578 1579 1579 1580
1543 1548 1549 1551 1550 1549 1549 1551 1555 1556 1557 1557 1558 1560 1561 1561 1563 1564 1565 1566 1566 1562 1564 1569 1569 1566 1568 1569 1571 1571 1572 1573 1575 1575 1574 1574 1574 1575 1576 1577 1577 1577 1579
1543 1546 1547 1546 1548 1547 1544 1547 1549 1552 1553 1554 1557 1558 1559 1561 1561 1562 1563 1562 1561 1559 1559 1561 1563 1565 1567 1568 1569 1569 1570 1571 1572 1573 1574 1572 1572 1572 1573 1574 1575 1575 1577
1543 1546 1552 1550 1546 1546 1542 1544 1546 1546 1549 1551 1553 1555 1556 1558 1559 1560 1560 1556 1553 1550 1556 1560 1561 1562 1564 1566 1567 1566 1567 1568 1570 1569 1570 1570 1569 1569 1570 1571 1572 1573 1574
1537 1535 1541 1541 1540 1541 1542 1542 1543 1545 1545 1547 1548 1549 1551 1554 1555 1557 1556 1554 1553 1554 1557 1559 1560 1560 1561 1562 1563 1564 1564 1565 1565 1566 1566 1568 1568 1568 1567 1568 1569 1570 1571
1541 1549 1541 1537 1538 1537 1539 1540 1541 1540 1541 1544 1545 1545 1545 1549 1552 1552 1554 1555 1553 1554 1555 1556 1557 1559 1558 1558 1559 1559 1560 1561 1561 1562 1562 1563 1564 1564 1565 1563 1565 1565 1566
1537 1541 1537 1535 1539 1539 1537 1539 1539 1536 1533 1540 1543 1544 1544 1547 1549 1549 1551 1551 1551 1553 1553 1554 1555 1555 1556 1555 1555 1556 1556 1556 1556 1557 1558 1559 1558 1559 1562 1561 1559 1559 1561
1538 1538 1538 1537 1537 1537 1536 1537 1538 1536 1534 1539 1541 1543 1544 1545 1546 1548 1548 1549 1550 1550 1551 1551 1551 1552 1554 1553 1551 1552 1552 1551 1551 1552 1554 1555 1555 1555 1555 1555 1556 1557 1557
1536 1536 1538 1538 1537 1536 1537 1540 1542 1540 1541 1542 1542 1544 1545 1544 1547 1547 1547 1547 1548 1548 1548 1548 1549 1548 1548 1548 1548 1548 1547 1547 1545 1545 1549 1551 1551 1552 1551 1552 1558 1559 1561
1543 1534 1537 1537 1537 1538 1541 1542 1543 1542 1543 1545 1546 1546 1546 1547 1548 1547 1547 1547 1546 1546 1548 1546 1545 1545 1544 1544 1544 1545 1544 1542 1541 1542 1545 1547 1546 1547 1547 1550 1548 1521 1552
1542 1535 1535 1536 1536 1539 1543 1546 1545 1546 1546 1546 1547 1548 1547 1547 1547 1546 1545 1545 1544 1544 1543 1543 1542 1542 1541 1540 1540 1540 1541 1541 1539 1540 1542 1543 1544 1542 1541 1545 1548 1544 1549
1536 1533 1534 1536 1537 1540 1543 1546 1548 1547 1548 1546 1546 1548 1547 1546 1546 1545 1543 1541 1541 1540 1540 1540 1539 1538 1537 1536 1536 1536 1537 1538 1539 1539 1539 1541 1541 1541 1540 1539 1544 1547 1548
1531 1532 1536 1536 1537 1539 1541 1544 1546 1548 1547 1548 1546 1548 1548 1548 1544 1544 1542 1540 1539 1539 1538 1539 1538 1537 1535 1534 1533 1534 1535 1534 1535 1537 1538 1540 1539 1542 1541 1540 1540 1542 1544